Regional Weather Roundup
Issued by NWS

Current Version | Previous Version | Graphics & Text | Print | Product List | Glossary On
Versions: 1 2 3 4 5 6 7 8 9 10 11 12 13 14 15 16 17 18 19 20 21 22 23 24 25 26 27 28 29 30 31 32 33 34 35 36 37 38 39 40 41 42 43 44 45 46 47 48 49 50
069
ASHW40 PHFO 080343
RWRHI

WEATHER ROUNDUP FOR HAWAII
NATIONAL WEATHER SERVICE HONOLULU HI
500 PM HST SUN FEB 07 2016

THIS IS AN AUTOMATED REPORT THAT HAS NOT BEEN QUALITY CONTROLLED.

NOTE..."FAIR" INDICATES FEW OR NO CLOUDS BELOW 12,000 FEET WITH NO
SIGNIFICANT WEATHER AND/OR OBSTRUCTIONS TO VISIBILITY.

* - THESE SITES REPORT LIMITED FIELDS

HIZ001>004-080400-
KAUAI-NIIHAU-

CITY           SKY/WX    TMP DP  RH WIND       PRES   REMARKS
LIHUE APT      MOSUNNY   71  49  45 N16G24    30.03S
PORT ALLEN*      N/A     73 N/A N/A VRB18G28    N/A
POIPU*           N/A     75 N/A N/A N8G18       N/A
PRINCEVILLE*     N/A     68 N/A N/A N8G15       N/A
KOKOLE POINT*  NOT AVBL
MOLOAA DAIRY*    N/A     72  52  49 N3G14       N/A
WAIMEA HTS*      N/A     73  45  35 N3G14       N/A
PUU OPAE*        N/A     61  45  55 N9G20       N/A
PUU LUA*       NOT AVBL
MAKAHA RIDGE*    N/A     63  48  59 N6G13       N/A
$$

HIZ005>011-080400-
OAHU-

CITY           SKY/WX    TMP DP  RH WIND       PRES   REMARKS
HONOLULU       MOSUNNY   74  48  39 N16G23    30.00R
KALAELOA       MOSUNNY   73  47  39 N8G20     30.01R
KANEOHE MCB    MOSUNNY   71  51  49 N16       29.98R
WHEELER FIELD  FAIR      66  49  54 N15G21    29.99R
BELLOWS*         N/A    N/A N/A N/A NE12G25     N/A
KAHUKU*          N/A    N/A N/A N/A VRB6G15     N/A
WHEELER*         N/A    N/A N/A N/A N14G24      N/A
WAIANAE HARBOR   N/A    N/A N/A N/A N6G22       N/A
DILLINGHAM*      N/A     73  50  43 MISG        N/A
KAHUKU TRN*      N/A     68  45  42 VRB6G15     N/A
KAWAILOA*        N/A     64  46  52 N10G23      N/A
KII*             N/A     72  50  46 N15G22      N/A
MAKUA RANGE*     N/A     75  50  41 E9G22       N/A
OAHU FOREST NW NOT AVBL
SCHOFIELD BRK*   N/A     64  46  52 MISG        N/A
SCHOFIELD S*   NOT AVBL
WAIANAE VLY*   NOT AVBL
KUAOKALA*      NOT AVBL
HONOULIUULI*   NOT AVBL
MOKUOLOE IS*   NOT AVBL
PALEHUA*         N/A     61 N/A N/A N6          N/A
WAIAWA PHB*    NOT AVBL
$$

HIZ012>013-080400-
MOLOKAI-

CITY           SKY/WX    TMP DP  RH WIND       PRES   REMARKS
MOLOKAI AIRPT  MOSUNNY   70  49  47 N17G23    30.00R
KALAUPAPA      NOT AVBL
MAKAPULAPAI*     N/A     72  50  46 VRB12G18    N/A
MOLOKAI 1*     NOT AVBL
PUU ALII*        N/A     50  48  94 SE2G13      N/A
$$

HIZ016-080400-
KAHOOLAWE-

CITY           SKY/WX    TMP DP  RH WIND       PRES   REMARKS
KAHOOLAWE*       N/A     66 N/A N/A NE1         N/A
HAKIOAWA*        N/A     66  52  61 MISG      30.38R
HONOKANAIA*      N/A     78  55  44 NW18G32   29.88F
KANELOA*         N/A     72  54  53 N21G41    29.98S
KEALIALALO*      N/A     70  52  52 NE21G36   29.95R
LUA MAKIKA*    NOT AVBL
$$

HIZ014>015-080400-
LANAI-

CITY           SKY/WX    TMP DP  RH WIND       PRES   REMARKS
LANAI CITY     FAIR      68  50  52 N20G25    30.00R
LANAI 1*       NOT AVBL
$$

HIZ017>028-080400-
MAUI-

CITY           SKY/WX    TMP DP  RH WIND       PRES   REMARKS
KAHULUI        MOSUNNY   74  51  44 N14G21    29.98S
KAPALUA-W MAUI MOSUNNY   72  48  43 N18G25    29.98
HANA AIRPORT   CLOUDY    68  32  26 W5        30.02R
HANA*            N/A     70 N/A N/A W7G13       N/A
HALEAKALA SUMM   N/A     36  -8  15 NW29        N/A  WCI  23
MAALAEA BAY*     N/A     73 N/A N/A N15G25      N/A
HALEAKALA*     NOT AVBL
KAUPO GAP*       N/A     55  55 100 S2G12       N/A
KULA 1*          N/A     57  11  16 NW6         N/A
$$

HIZ023>026-080400-
BIG ISLAND OF HAWAII COAST AND LOWER SLOPES-

CITY           SKY/WX    TMP DP  RH WIND       PRES   REMARKS
KAILUA KONA    MOSUNNY   78  62  57 N28G33    29.88
HILO           MOSUNNY   71  60  68 N14       29.97R
HONOKAA*         N/A     63 N/A N/A VRB1        N/A
KAWAIHAE MWT*    N/A     82 N/A N/A NE14G23     N/A
KAWAIHAE*        N/A     79 N/A N/A MISG      29.89S
SOUTH POINT*     N/A     73 N/A N/A NE8         N/A
UPOLU AIRPORT*   N/A    N/A N/A N/A N20G30      N/A
KAMUELA*       MOCLDY    61  55  82 NE17      30.03S
HAKALAU*         N/A     54  47  78 SE3G13      N/A
KALOKO-HONOKO*   N/A     81  55  41 CALM      29.86S
PALI 2*          N/A     61  55  82 NE18G28     N/A
KEALAKOMO*       N/A     73  57  56 N35G49      N/A
KAUPULEHU*       N/A     70  55  60 E15G21      N/A
KAPAPALA*        N/A     67  56  67 NE8G18      N/A
LOWER KAHUKU*    N/A     64 N/A N/A S2G8        N/A
PUHE CS*         N/A     81  54  39 N6G16       N/A
PUHO CS*         N/A     84  58  41 SW3G9       N/A
PTA KEAMUKU*     N/A     59  52  77 CALM        N/A
WAIKOLOA*        N/A     70  55  60 E23G31      N/A
$$

HIZ027>028-080400-
BIG ISLAND OF HAWAII INTERIOR AND SUMMMITS-

CITY           SKY/WX    TMP DP  RH WIND       PRES   REMARKS
BRADSHAW FIELD SUNNY     60  31  32 W12G17    30.18S
MK VISITOR CEN   N/A     43  19  39 W10         N/A
MAUNA KEA*       N/A     27 -29   7 N53G71      N/A  WCI   6
MAUNA LOA*       N/A     41 -40   2 MISG        N/A
MAUNA LOA 1*   NOT AVBL
PTA KIPUKA*      N/A     63  46  55 W3G13       N/A
PTA RANGE 17*    N/A     64  45  48 W8G14       N/A
PTA WEST*        N/A     64  48  55 W5G12       N/A
NENE CABIN*      N/A     61  57  88 W10G21      N/A
AHUMOA*          N/A     58  34  40 SW6G12      N/A
PTA PORTABLE*  NOT AVBL
PUU MALI*        N/A     45  45 100 W9G15       N/A
$$

HIC003-080400-
NORTHWEST ISLANDS-

CITY           SKY/WX    TMP DP  RH WIND       PRES   REMARKS
MIDWAY ISLAND  MOSUNNY   72  52  49 SW13      30.18F
MIDWAY NOS*      N/A     68 N/A N/A MISG      30.16F
FRENCH FRIGATE NOT AVBL
$$

PHZ110>124-180-080400-
BUOY REPORTS

STATION/POSITION TIME  TEMP    WIND        PRES    WAVE   SWELL
                       AIR SEA DIR/SP/G            HT/PER HT/DIR
                 (UTC) (F)     (DEG/KT/KT) (MB)    (FT/S) (FT/D)
BUOY 51001       0300   67 76  350/ 16/ 21 1019.0F
BUOY 51101       0250   67 76  340/ 17/ 21 1018.9R  14/11  13/340
BUOY 51100       NOT AVBL
BUOY 51002       0250   76 78   10/ 21/ 25 1012.5R  10/10   5/ 50
BUOY 51003       0250   73 78   20/ 19/ 25 1014.9R  10/ 9   7/350
BUOY 51004       0250   75 78  340/ 16/ 19 1012.4R   7/10   7/ 70
BARBERS PT BUOY  NOT AVBL
WAIMEA BAY BUOY  0304      77                N/A    10/11   7/330
KAILUA BAY BUOY  0311      77                N/A    10/13   7/360
LANAI BUOY       NOT AVBL
BARBERS PT 2     0303      78                N/A     6/11   3/310
PAUWELA MAUI     0307      76                N/A    10/11   5/340
HILO             NOT AVBL
KANEOHE BAY BUOY 0306      77                N/A     9/13   7/350
HANALEI KAUAI    0301      77                N/A    12/12   8/340
KAHULUI HARBOR   0300   72 77  360/ 14/ 18 1015.1R
HONOLULU HARBOR  0300   72 77  350/  6/ 10 1016.3R
KILO NALU        NOT AVBL
HILO HARBOR      0300   68 75   10/ 25/ 29 1014.2R
MOKUOLOE         0200   71 78  350/ 15/ 20 1015.4F
NAWILIWILI       0300   70 78  350/  8/ 16 1016.4S
WHOTS BUOY       NOT AVBL
BUOY 51028       NOT AVBL
$$

......................KEY........................................
  SKY/WX - SKY CONDITIONS/PRESENT WEATHER
  TMP    - TEMPERATURE IN FAHRENHEIT
  DWPT   - DEWPOINT IN FAHRENHEIT
  RH     - RELATIVE HUMIDITY IN PERCENT
  WIND   - DIRECTION AND SPEED /MPH FOR ISLANDS...KTS FOR BUOYS/
  PRES   - MEAN SEA LEVEL PRESSURE IN INCHES OF HG
  VSB    - VISIBILITY IN MILES
  HX     - HEAT INDEX
  WCI    - WIND CHILL INDEX
  VRB    - VARIABLE WIND DIRECTION
  N/A    - NOT AVAILABLE




USA.gov is the U.S. government's official web portal to all federal, state and local government web resources and services.